Home > Time Zones > World Clock > Weather > Spain > Ibiza > Past weeks

Flag for Spain Weather past 2 weeks in Ibiza, Ibiza, Spain

Now
59 °F

Clear.


Feels Like: 59 °F
Forecast: 52 / 64 °F
Wind: 5 mph from West

Location: Ibiza / Es Codola

Current Time: Dec 18, 2014 at 2:08:17 AM

Latest Report: Dec 18, 2014 at 12:00 AM


Visibility: 10 mi

Pressure: 30.21 "Hg

Humidity: 82%

Dew point: 54 °F

Location of IbizaLocation

Historic Weather in Ibiza — Graph

°F

Ibiza temperature yesterday

Maximum temperature yesterday: 63 °F (at 12:30 PM)
Minimum temperature yesterday: 45 °F (at 2:00 AM)
Average temperature yesterday: 55 °F

Past Weeks' High & Low Weather Summary

 TemperatureHumidityPressure
High64 °F (Dec 3, 11:30 AM)100% (Dec 5, 6:30 AM)30.42 "Hg (Dec 5, 6:30 AM)
Low43 °F (Dec 8, 12:00 AM)25% (Dec 9, 1:30 PM)29.77 "Hg (Dec 3, 5:30 AM)
Average55 °F74%30.08 "Hg
* Reported Midnight between Dec 2 and Dec 3 — Midnight between Dec 17 and Dec 18, Ibiza, Weather by CustomWeather, © 2014

Note: Actual official high and low records may vary slightly from our data, if they occured in-between our weather recording intervals... More about our weather records

Advertising

Ibiza weather history for previous 24 hours

 ConditionsComfort  
Time TempWeatherWind HumidityBarometerVisibility
12:00 AM
Dec 18
59 °FClear.5 mph82%30.21 "Hg10 mi
11:30 PM
Dec 17
59 °FClear.5 mph77%30.18 "Hg10 mi
11:00 PM59 °FClear.6 mph77%30.21 "Hg10 mi
10:30 PM59 °FClear.9 mph77%30.18 "Hg10 mi
10:00 PM59 °FClear.12 mph77%30.18 "Hg10 mi
9:30 PM59 °FClear.10 mph77%30.21 "Hg10 mi
9:00 PM59 °FClear.10 mph77%30.18 "Hg10 mi
8:30 PM57 °FClear.9 mph82%30.21 "Hg10 mi
8:00 PM57 °FClear.10 mph82%30.18 "Hg10 mi
7:30 PM57 °FClear.12 mph82%30.18 "Hg10 mi
7:00 PM57 °FClear.14 mph82%30.18 "Hg10 mi
6:30 PM57 °FClear.13 mph82%30.18 "Hg10 mi
6:00 PM57 °FClear.13 mph82%30.18 "Hg10 mi
5:30 PM57 °FSunny.12 mph77%30.18 "Hg10 mi
5:00 PM59 °FSunny.7 mph63%30.18 "Hg10 mi
4:30 PM61 °FSunny.8 mph55%30.15 "Hg10 mi
4:00 PM61 °FSunny.10 mph55%30.15 "Hg10 mi
3:30 PM63 °FSunny.10 mph52%30.15 "Hg10 mi
3:00 PM63 °FSunny.9 mph52%30.15 "Hg10 mi
2:30 PM63 °FSunny.9 mph56%30.15 "Hg10 mi
2:00 PM63 °FSunny.7 mph56%30.15 "Hg10 mi
1:30 PM63 °FPassing clouds.7 mph59%30.15 "HgN/A
1:00 PM63 °FPassing clouds.8 mph59%30.18 "HgN/A
12:30 PM63 °FPassing clouds.7 mph64%30.18 "HgN/A
12:00 PM61 °FPassing clouds.6 mph68%30.18 "HgN/A
11:30 AM59 °FPassing clouds.9 mph68%30.18 "HgN/A
11:00 AM59 °FPassing clouds.No wind77%30.18 "HgN/A
10:30 AM55 °FPassing clouds.1 mph82%30.18 "HgN/A
10:00 AM57 °FPassing clouds.No wind82%30.15 "HgN/A
9:30 AM54 °FPassing clouds.1 mph82%30.15 "HgN/A
9:00 AM50 °FSunny.No wind88%30.15 "Hg10 mi
8:30 AM48 °FSunny.2 mph82%30.12 "Hg10 mi
8:00 AM50 °FClear.No wind82%30.12 "Hg10 mi
7:30 AM54 °FClear.1 mph72%30.12 "Hg10 mi
7:00 AM50 °FClear.1 mph76%30.09 "Hg10 mi
6:30 AM50 °FClear.1 mph88%30.09 "Hg10 mi
6:00 AM50 °FClear.No wind88%30.07 "Hg10 mi
5:30 AM50 °FPassing clouds.3 mph88%30.07 "HgN/A
5:00 AM46 °FPassing clouds.1 mph93%30.07 "HgN/A
4:30 AM48 °FPassing clouds.1 mph100%30.07 "HgN/A
4:00 AM46 °FPassing clouds.No wind93%30.07 "HgN/A
3:30 AM45 °FPassing clouds.No wind100%30.07 "HgN/A
3:00 AM46 °FPassing clouds.No wind93%30.04 "HgN/A
2:30 AM45 °FPassing clouds.1 mph100%30.04 "HgN/A
2:00 AM45 °FPassing clouds.1 mph93%30.04 "HgN/A
Weather by CustomWeather, © 2014

See weather overviewHow to use our weather pages